Flag for U.S.A. Weather past 2 weeks in Baltimore, Maryland, U.S.A.

Now
78 °F

Scattered clouds.


Feels Like: 80 °F
Forecast: 68 / 87 °F
Wind: 9 mph from Southwest

Location: Baltimore-Washington International Airport

Current Time: May 30, 2015 at 11:08:23 AM

Latest Report: May 30, 2015 at 9:54 AM


Visibility: 10 mi

Pressure: 30.17 "Hg

Humidity: 69%

Dew point: 67 °F

Location of BaltimoreLocation

Historic Weather in Baltimore — Graph

°F

Baltimore temperature yesterday

Maximum temperature yesterday: 83 °F (at 3:54 PM)
Minimum temperature yesterday: 70 °F (at 5:54 AM)
Average temperature yesterday: 75 °F

Past Weeks' High & Low Weather Summary

 TemperatureHumidityPressure
High89 °F (May 28, 12:54 PM)97% (May 17, 4:54 AM)30.46 "Hg (May 17, 4:54 AM)
Low46 °F (May 23, 5:54 AM)21% (May 23, 2:54 PM)29.81 "Hg (May 19, 6:54 PM)
Average70 °F66%30.14 "Hg
* Reported May 15 9:54 AM — May 30 9:54 AM, Baltimore, Weather by CustomWeather, © 2015

Note: Actual official high and low records may vary slightly from our data, if they occured in-between our weather recording intervals... More about our weather records

Advertising

Baltimore weather history for previous 24 hours

 ConditionsComfort  
Time TempWeatherWind HumidityBarometerVisibility
9:54 AM
Sat, May 30
78 °FScattered clouds.9 mph69%30.17 "Hg10 mi
8:54 AM75 °FBroken clouds.8 mph76%30.18 "Hg10 mi
7:54 AM73 °FBroken clouds.6 mph81%30.19 "Hg10 mi
6:54 AM70 °FBroken clouds.3 mph87%30.18 "Hg10 mi
5:54 AM69 °FPartly cloudy.No wind90%30.18 "Hg10 mi
4:54 AM70 °FPartly cloudy.No wind87%30.17 "Hg10 mi
3:54 AM70 °FPartly cloudy.3 mph87%30.16 "Hg10 mi
2:54 AM71 °FPassing clouds.3 mph84%30.17 "Hg10 mi
1:54 AM71 °FPassing clouds.3 mph84%30.18 "Hg10 mi
12:54 AM71 °FPartly cloudy.3 mph81%30.18 "Hg10 mi
11:54 PM
Fri, May 29
72 °FPartly cloudy.6 mph73%30.19 "Hg10 mi
10:54 PM73 °FPartly cloudy.6 mph69%30.20 "Hg10 mi
9:54 PM74 °FPassing clouds.3 mph74%30.20 "Hg10 mi
8:54 PM75 °FBroken clouds.5 mph74%30.18 "Hg10 mi
7:54 PM78 °FBroken clouds.6 mph69%30.18 "Hg10 mi
6:54 PM81 °FBroken clouds.8 mph60%30.17 "Hg10 mi
5:54 PM83 °FBroken clouds.14 mph61%30.17 "Hg10 mi
4:54 PM83 °FScattered clouds.7 mph61%30.18 "Hg7 mi
3:54 PM83 °FScattered clouds.6 mph59%30.20 "Hg10 mi
2:54 PM81 °FScattered clouds.6 mph60%30.23 "Hg10 mi
1:54 PM80 °FScattered clouds.7 mph56%30.25 "Hg10 mi
12:54 PM78 °FScattered clouds.5 mph58%30.25 "Hg10 mi
11:54 AM75 °FPartly sunny.5 mph62%30.27 "Hg10 mi
Weather by CustomWeather, © 2015

See weather overviewHow to use our weather pages